Location: Assche-ter-Heiden
(50.9174°N, 4.1574°E)
Time: 22:11:45
(UTC+00:00)

Meteor 1-21 Rocket - Pass Details

Date: 20 January 2020
Orbit: 834 x 907 km, 81.2° (Epoch: 17 February)

Event Time Altitude Azimuth Distance (km) Brightness Sun altitude
Exits shadow 04:51:50 - 348° (NNW) 3,163 7.0 -25.3°
Reaches altitude 10° 04:53:24 10° 349° (N) 2,566 6.6 -25.1°
Maximum altitude 04:59:16 80° 77° (ENE) 919 4.4 -24.1°
Drops below altitude 10° 05:05:11 10° 165° (SSE) 2,581 6.9 -23.2°
Sets 05:07:39 0° 166° (SSE) 3,521 7.7 -22.8°
